Yaogan 30 hao 01 zu 01 xing

operational
NORAD ID: 42945 Int'l Des: 2017-058 Owner: ZLZB Country: CN Constellation: yaogan
LEOCIRCULAR

Über Yaogan 30 hao 01 zu 01 xing

Beschreibung wird geladen...

Live-Position

3D-Globus wird geladen...

Nächste Überflüge

Höhenverlauf

Altitude vs Time

uPlot chart will show altitude changes over time

Zweizeiliger Elementsatz

1 42945U 17058A 26071.14474934 .00003844 00000-0 28556-3 0 9995
2 42945 34.9963 260.8591 0002167 355.0581 5.0106 15.02521053461281
Epoch: 12. März 2026 • Age: 14 hours

Aktueller Status

Höhe 559.2 km
Geschwindigkeit 7.58 km/s
Subsatellitenpunkt 2.69°N, 56.91°E
Startdatum 29. Sept. 2017
Alter 8.4 years
Typ military

Technische Details

Klassifizierung Payload
Masse 500.00 kg
Trockenmasse 500.00 kg
Gesamtmasse 500.00 kg
Länge 0.50 m
Durchmesser 0.50 m
Spannweite 1.00 m
Form Box + 2 Pan
Hersteller SECM
Phasenstatus In Orbit
Besitzer/Staat ZLZB/CN

Große Konstellationen

Loading constellations...